Tracking 19199 objects as of 25-Jun-2018
HD Live streaming from Space Station
objects crossing your sky now

FENGYUN 1C DEB

Track FENGYUN 1C DEB now!
10-day predictions


NORAD ID: 31568
Int'l Code: 1999-025BZK
Perigee: 835.4 km
Apogee: 1,059.7 km
Inclination: 102.1 °
Period: 103.8 minutes
Semi major axis: 7318 km
RCS: 0.0068 m2 (small)
Launch date: May 10, 1999
Source: People's Republic of China (PRC)
Launch site: Taiyaun Space Center, China (TSC)

Note: This is SATELLITE DEBRIS
aabbcc
Your satellite tracking list
Your tracking list is empty




NASA's NSSDC Master Catalog

Two Line Element Set (TLE):
1 31568U 99025BZK 18175.13082784  .00001543  00000-0  12628-2 0  9997
2 31568 102.0917 291.1697 0153247 261.8886  96.4851 13.86646989567855
Source of the keplerian elements: AFSPC